#timestamp,LO_Frequency,Hit,StdDev 
1610481615.2,286047000.7,N
1610481635.9,286046998.5,N
1610481655.7,286047001.2,N
1610481675.6,286046998.3,N
1610481695.4,286046998.3,N
1610481715.2,286046998.7,N
1610481735.1,286046999.0,N
1610481736.0,286046999.0,N
1610481755.8,286046998.1,N
1610481775.7,286047000.7,N
1610481795.5,286047000.4,N
1610481815.3,286047002.7,N
1610481835.2,286047002.3,N
1610481855.0,286046998.2,N
1610481855.9,286046998.2,N
1610481875.8,286046999.4,N
1610481895.6,286047000.1,N
1610481915.4,286046999.9,N
1610481935.3,286047000.7,N
1610481955.1,286046998.8,N
1610481975.9,286047000.5,N
1610481995.7,286047001.9,N
1610482015.4,286047000.0,N
1610482035.2,286047000.3,N
1610482055.1,286047002.3,N
1610482056.0,286047002.3,N
1610482075.8,286047002.1,N
1610482095.6,286047002.1,N
1610482115.5,286047002.0,N
1610482135.3,286047000.8,N
1610482155.2,286047002.0,N
1610482175.9,286047002.2,N
1610482195.7,286047002.3,N
1610482215.6,286047002.4,N
1610482235.4,286046999.7,N
1610482255.3,286046999.9,N
1610482275.1,286047002.3,N
1610482276.0,286047002.3,N
1610482295.8,286047002.6,N
1610482315.7,286047002.4,N
1610482335.5,286047000.3,N
1610482355.3,286047001.6,N
1610482375.2,286047003.9,N
1610482395.0,286047003.9,N
1610482395.9,286047003.9,N
1610482415.8,286047004.0,N
1610482435.6,286047003.4,N
1610482455.5,286047001.5,N
1610482475.3,286047002.5,N
1610482495.1,286046999.8,N
1610482515.9,286047002.5,N
1610482535.7,286047000.6,N
1610482555.5,286047002.3,N
1610482575.4,286047001.5,N
1610482595.2,286047001.4,N
1610482615.1,286047001.8,N
1610482616.0,286047001.8,N
1610482635.8,286047001.5,N
1610482655.6,286047001.5,N
1610482675.5,286047004.0,Y
1610482695.3,286047002.2,P
1610482715.1,286047002.3,P
1610482735.9,286047002.3,P
1610482755.7,286047002.6,Y
1610482775.6,286047001.0,P
1610482795.4,286046998.3,N
1610482815.2,286046998.9,N
1610482835.1,286046998.9,N
1610482836.0,286046998.9,N
1610482855.8,286046998.2,N
1610482875.7,286046998.7,N
1610482895.5,286046998.9,N
1610482915.3,286046998.1,N
1610482935.2,286046998.7,N
1610482955.9,286046999.0,N
1610482975.7,286046996.9,N
1610482995.6,286046996.6,N
1610483015.4,286046998.2,N
1610483035.2,286046998.5,N
1610483055.1,286046998.1,N
1610483056.0,286046998.1,N
1610483075.8,286047000.7,N
1610483095.7,286047002.3,N
1610483115.5,286047002.8,N
1610483135.3,286047000.1,N
1610483155.2,286046998.2,N
1610483175.0,286046998.2,N
1610483175.9,286046998.2,N
1610483195.8,286047000.6,N
1610483215.6,286047000.7,N
1610483235.4,286047001.1,N
1610483255.3,286046999.8,N
1610483275.1,286047000.2,N
1610483295.8,286047000.9,N
1610483315.7,286047000.1,N
1610483335.5,286047000.4,N
1610483355.3,286047000.9,N
1610483375.2,286047001.0,N
1610483395.0,286047001.2,N
1610483395.9,286047001.2,N
1610483415.8,286047000.7,N
1610483435.6,286047000.9,N
1610483455.4,286047000.5,N
1610483475.3,286046998.6,N
1610483495.1,286047000.0,N
1610483515.8,286047001.9,N
1610483535.7,286047002.8,N
1610483555.5,286047000.5,N
1610483575.4,286047000.5,N
1610483595.2,286047000.0,N
1610483615.0,286047000.5,N
1610483615.9,286047000.5,N
1610483635.8,286047000.6,N
1610483655.6,286047002.2,N
1610483675.4,286047002.6,N
1610483695.3,286047000.5,N
1610483715.1,286046998.8,N
1610483735.9,286047001.2,N
1610483755.7,286047000.0,N
1610483775.5,286047000.1,N
1610483795.4,286047001.2,N
1610483815.2,286047002.8,Y
1610483835.0,286046998.3,P
1610483836.0,286046998.3,N
1610483855.8,286046998.7,N
1610483875.6,286046998.4,N
1610483895.5,286047001.1,N
1610483915.3,286047000.6,N
1610483935.1,286046998.6,N
1610483955.9,286047000.0,N
1610483975.7,286047000.7,N
1610483995.6,286047002.4,N
1610484015.4,286047000.4,N
1610484035.2,286047001.0,N
1610484055.1,286047000.0,N
1610484056.0,286047000.0,N
1610484075.8,286047000.4,N
1610484095.7,286047001.0,N
1610484115.5,286047000.0,N
1610484135.3,286047000.1,N
1610484155.2,286046998.3,N
1610484175.0,286046998.6,N
1610484175.9,286046998.6,N
1610484195.7,286046998.7,N
1610484215.6,286046998.7,N
1610484235.4,286046998.6,N
1610484255.3,286047001.1,N
1610484275.1,286047000.7,N
1610484276.0,286047000.7,N
1610484295.8,286047001.1,N
1610484315.7,286047000.8,N
1610484335.5,286047000.3,N
1610484355.3,286047002.8,N
1610484375.2,286046999.7,N
1610484395.0,286047002.6,N
1610484395.9,286047002.6,N
1610484415.8,286047000.0,N
1610484435.6,286047002.3,N
1610484455.4,286047001.6,N
1610484475.3,286047001.3,N
1610484495.1,286047004.2,Y
1610484515.9,286047004.4,P
1610484535.7,286047001.8,N
1610484555.5,286047004.0,N
1610484575.4,286047004.3,N
1610484595.2,286047001.9,N
1610484615.0,286047001.6,N
1610484615.9,286047001.6,N
1610484635.8,286047002.5,N
1610484655.6,286046999.9,N
1610484675.5,286047002.7,N
1610484695.3,286047001.8,N
1610484715.1,286047002.1,N
1610484735.9,286047004.3,Y
1610484755.7,286046999.9,P
1610484775.6,286047000.0,N
1610484795.4,286046998.7,N
1610484815.2,286046996.6,N
1610484835.1,286046999.1,N
1610484836.0,286046999.1,N
1610484855.8,286046999.3,N
1610484875.6,286046998.9,N
1610484895.5,286046996.9,N
1610484915.3,286046997.4,N
1610484935.2,286046996.8,N
1610484955.9,286046996.6,N
1610484975.7,286046998.5,N
1610484995.6,286047001.1,N
1610485015.4,286047000.9,N
1610485035.3,286047000.5,N
1610485055.1,286047000.0,N
1610485056.0,286047000.0,N
1610485075.8,286047000.5,N
1610485095.7,286047000.6,N
1610485115.5,286047000.8,N
1610485135.4,286046998.2,N
1610485155.2,286047001.1,N
1610485175.0,286047000.8,N
1610485175.9,286047000.8,N
1610485195.8,286047000.6,N
